STPSAT-6

Last updated on Thu Nov 21 2024 00:02:44 GMT+0000 (Coordinated Universal Time)

1 49817U 21118A 24325.39473722 -.00000044 00000+0 00000+0 0 9992 2 49817 0.0357 92.6548 0002010 186.1212 171.4450 1.00273105 10815
UTC large
Height (km)
Speed (km/s)
/
Latitude / Longitude
Inclination (degrees)
Orbital Period (minutes)
Azimuth
Elevation
Range (km)
Doppler Factor

Next 0 passes for location: London (51.5072 / 0.1276)

Sorry there are no passes over London.